Mayfld Grav Cnty AP, Mayfield, KY

4:57 AM CST on December 06, 2019 (GMT -0600)
Mayfld Grav Cnty AP, Mayfield

Weather History for KM25 - November, 2019

Change the Weather History Date:

Friday, November 15, 2019

  Actual Average (KPAH) Record (KPAH)
Temperature  
Mean Temperature 35 °F -  
Max Temperature 44 °F 57 °F 80 °F (1955)
Min Temperature 26 °F 37 °F 16 °F (1940)
Degree Days  
Heating Degree Days 30    
Moisture  
Dew Point 26 °F    
Average Humidity 73    
Maximum Humidity 100    
Minimum Humidity 39    
Precipitation  
Precipitation 0.00 in - - ()
Sea Level Pressure  
Sea Level Pressure 30.37 in    
Wind  
Wind Speed 4 mph (North)    
Max Wind Speed 9 mph    
Max Gust Speed -    
Visibility 9 miles    
Events      
Averages and records for this station are not official NWS values.
T = Trace of Precipitation, MM = Missing Value Source: NWS Daily Summary

Daily Weather History Graph

Daily Weather History Graph

Search for Another Location

Airport or City:

Astronomy

Nov. 15, 2019 Rise Set
Actual Time 6:32 AM CST 4:45 PM CST
Civil Twilight 6:04 AM CST 5:12 PM CST
Nautical Twilight 5:33 AM CST 5:44 PM CST
Astronomical Twilight 5:02 AM CST 6:14 PM CST
Moon 7:23 PM CST (11/15) 9:25 AM CST (11/15)
Length of Visible Light 11h 08m
Length of Day
10h 13m
Waning Gibbous, 90% of the Moon is Illuminated
Nov 15
Waning Gibbous
Nov 19
Last Quarter
Nov 26
New
Dec 4
First Quarter
Dec 11
Full

Hourly Weather History & Observations

Time (CST) Temp. Windchill Dew Point Humidity Pressure Visibility Wind Dir Wind Speed Gust Speed Precip Events Conditions
12:15 AM 32.0 °F 27.5 °F 26.6 °F 80% 30.37 in 10.0 mi North 4.6 mph - N/A   Clear
12:35 AM 32.0 °F 27.5 °F 28.4 °F 87% 30.37 in 10.0 mi North 4.6 mph - N/A   Clear
12:55 AM 32.0 °F 28.7 °F 28.4 °F 87% 30.37 in 10.0 mi NNE 3.5 mph - N/A   Clear
1:15 AM 32.0 °F - 26.6 °F 80% 30.37 in 10.0 mi Calm Calm - N/A   Clear
1:35 AM 30.2 °F 26.7 °F 28.4 °F 93% 30.37 in 10.0 mi NNE 3.5 mph - N/A   Clear
2:15 AM 30.2 °F 25.4 °F 26.6 °F 86% 30.37 in 10.0 mi NNE 4.6 mph - N/A   Clear
2:35 AM 30.2 °F - 28.4 °F 93% 30.37 in 10.0 mi Calm Calm - N/A   Clear
3:15 AM 30.2 °F 26.7 °F 26.6 °F 86% 30.37 in 10.0 mi NE 3.5 mph - N/A   Clear
3:35 AM 30.2 °F 26.7 °F 26.6 °F 86% 30.37 in 10.0 mi NNE 3.5 mph - N/A   Clear
3:55 AM 28.4 °F 24.6 °F 26.6 °F 93% 30.36 in 10.0 mi NE 3.5 mph - N/A   Clear
4:15 AM 28.4 °F 24.6 °F 26.6 °F 93% 30.36 in 7.0 mi NNE 3.5 mph - N/A   Clear
4:35 AM 28.4 °F 24.6 °F 26.6 °F 93% 30.38 in 7.0 mi NNE 3.5 mph - N/A   Clear
4:55 AM 28.4 °F 23.3 °F 26.6 °F 93% 30.39 in 7.0 mi North 4.6 mph - N/A   Clear
5:15 AM 28.4 °F 24.6 °F 26.6 °F 93% 30.39 in 7.0 mi North 3.5 mph - N/A   Clear
5:35 AM 28.4 °F 24.6 °F 26.6 °F 93% 30.39 in 7.0 mi North 3.5 mph - N/A   Clear
5:55 AM 28.4 °F - 26.6 °F 93% 30.40 in 7.0 mi Calm Calm - N/A   Clear
6:15 AM 28.4 °F 24.6 °F 26.6 °F 93% 30.40 in 7.0 mi North 3.5 mph - N/A   Clear
6:35 AM 28.4 °F 24.6 °F 26.6 °F 93% 30.40 in 5.0 mi North 3.5 mph - N/A   Clear
6:55 AM 26.6 °F 22.6 °F 26.6 °F 100% 30.40 in 4.0 mi North 3.5 mph - N/A   Clear
7:15 AM 28.4 °F 22.2 °F 26.6 °F 93% 30.41 in 4.0 mi NNW 5.8 mph - N/A   Clear
7:35 AM 28.4 °F 22.2 °F 26.6 °F 93% 30.41 in 5.0 mi North 5.8 mph - N/A   Clear
7:55 AM 30.2 °F 26.7 °F 28.4 °F 93% 30.41 in 7.0 mi North 3.5 mph - N/A   Clear
8:15 AM 32.0 °F 26.4 °F 28.4 °F 87% 30.42 in 7.0 mi North 5.8 mph - N/A   Clear
8:35 AM 32.0 °F 26.4 °F 28.4 °F 87% 30.42 in 10.0 mi North 5.8 mph - N/A   Clear
8:55 AM 33.8 °F 30.8 °F 28.4 °F 81% 30.42 in 10.0 mi NNE 3.5 mph - N/A   Clear
9:35 AM 35.6 °F 29.2 °F 28.4 °F 75% 30.42 in 10.0 mi NE 8.1 mph - N/A   Clear
9:55 AM 35.6 °F 29.2 °F 28.4 °F 75% 30.42 in 10.0 mi North 8.1 mph - N/A   Scattered Clouds
10:15 AM 35.6 °F 29.2 °F 28.4 °F 75% 30.41 in 10.0 mi North 8.1 mph - N/A   Clear
10:35 AM 37.4 °F 32.1 °F 26.6 °F 65% 30.41 in 10.0 mi North 6.9 mph - N/A   Clear
10:55 AM 37.4 °F 30.8 °F 28.4 °F 70% 30.41 in 10.0 mi North 9.2 mph - N/A   Clear
11:15 AM 37.4 °F 32.1 °F 26.6 °F 65% 30.40 in 10.0 mi North 6.9 mph - N/A   Clear
11:35 AM 39.2 °F 33.6 °F 28.4 °F 65% 30.39 in 10.0 mi North 8.1 mph - N/A   Clear
11:55 AM 41.0 °F 38.0 °F 26.6 °F 57% 30.37 in 10.0 mi North 4.6 mph - N/A   Clear
12:35 PM 41.0 °F 35.2 °F 26.6 °F 57% 30.36 in 10.0 mi North 9.2 mph - N/A   Clear
12:55 PM 42.8 °F 38.6 °F 26.6 °F 53% 30.35 in 10.0 mi North 6.9 mph - N/A   Clear
1:15 PM 42.8 °F 38.6 °F 26.6 °F 53% 30.35 in 10.0 mi NNE 6.9 mph - N/A   Clear
1:55 PM 44.6 °F 40.2 °F 26.6 °F 49% 30.34 in 10.0 mi North 8.1 mph - N/A   Clear
2:15 PM 44.6 °F 40.2 °F 24.8 °F 46% 30.34 in 10.0 mi North 8.1 mph - N/A   Clear
2:35 PM 44.6 °F 42.2 °F 24.8 °F 46% 30.34 in 10.0 mi NNE 4.6 mph - N/A   Clear
3:15 PM 44.6 °F 41.4 °F 23.0 °F 43% 30.34 in 10.0 mi NNE 5.8 mph - N/A   Clear
3:35 PM 44.6 °F 43.1 °F 23.0 °F 43% 30.33 in 10.0 mi North 3.5 mph - N/A   Clear
3:55 PM 44.6 °F 40.7 °F 21.2 °F 39% 30.34 in 10.0 mi North 6.9 mph - N/A   Clear
4:15 PM 44.6 °F 41.4 °F 23.0 °F 43% 30.33 in 10.0 mi North 5.8 mph - N/A   Clear
4:35 PM 42.8 °F 40.1 °F 23.0 °F 46% 30.33 in 10.0 mi North 4.6 mph - N/A   Clear
4:55 PM 41.0 °F 39.0 °F 23.0 °F 49% 30.33 in 10.0 mi North 3.5 mph - N/A   Clear
5:15 PM 41.0 °F - 23.0 °F 49% 30.33 in 10.0 mi Calm Calm - N/A   Clear
5:35 PM 37.4 °F 34.9 °F 23.0 °F 56% 30.32 in 10.0 mi North 3.5 mph - N/A   Clear
5:55 PM 37.4 °F 33.8 °F 23.0 °F 56% 30.33 in 10.0 mi North 4.6 mph - N/A   Clear
6:15 PM 37.4 °F 34.9 °F 23.0 °F 56% 30.33 in 10.0 mi North 3.5 mph - N/A   Clear
6:35 PM 35.6 °F 31.7 °F 23.0 °F 60% 30.33 in 10.0 mi North 4.6 mph - N/A   Clear
7:35 PM 35.6 °F 30.7 °F 23.0 °F 60% 30.33 in 10.0 mi NNE 5.8 mph - N/A   Clear
8:15 PM 33.8 °F 29.6 °F 24.8 °F 70% 30.33 in 10.0 mi NNE 4.6 mph - N/A   Clear
8:35 PM 33.8 °F 30.8 °F 24.8 °F 70% 30.33 in 10.0 mi North 3.5 mph - N/A   Clear
8:55 PM 33.8 °F 29.6 °F 23.0 °F 65% 30.33 in 10.0 mi North 4.6 mph - N/A   Clear
9:15 PM 32.0 °F 27.5 °F 23.0 °F 69% 30.34 in 10.0 mi North 4.6 mph - N/A   Clear
9:35 PM 32.0 °F 27.5 °F 24.8 °F 75% 30.34 in 10.0 mi North 4.6 mph - N/A   Clear
9:55 PM 32.0 °F 27.5 °F 24.8 °F 75% 30.34 in 10.0 mi North 4.6 mph - N/A   Clear
10:15 PM 32.0 °F 27.5 °F 26.6 °F 80% 30.34 in 10.0 mi North 4.6 mph - N/A   Clear
10:35 PM 32.0 °F 27.5 °F 26.6 °F 80% 30.34 in 10.0 mi NNE 4.6 mph - N/A   Clear
10:55 PM 32.0 °F 27.5 °F 26.6 °F 80% 30.34 in 10.0 mi North 4.6 mph - N/A   Clear
11:35 PM 32.0 °F 27.5 °F 26.6 °F 80% 30.33 in 10.0 mi North 4.6 mph - N/A   Clear